Home > Weather > Babylon > Past weeks

Flag for USA Past Weather in Babylon, New York, USA — Yesterday and Last 2 Weeks

Now
72 °F

Passing clouds.


Feels Like: 77 °F
Forecast: 65 / 78 °F
Wind: 7 mph from Southwest

Location: Republic Airport

Current Time: May 28, 2016 at 11:56:56 PM

Latest Report: May 28, 2016 at 10:53 PM


Visibility: 10 mi

Pressure: 30.14 "Hg

Humidity: 52%

Dew Point: 53 °F

Location of BabylonLocation

Past Weather in Babylon — Graph

°F

Babylon Temperature Yesterday

Maximum temperature yesterday: 77 °F (at 10:53 AM)
Minimum temperature yesterday: 63 °F (at 5:53 AM)
Average temperature yesterday: 70 °F

High & Low Weather Summary for the Past Weeks

 TemperatureHumidityPressure
High87 °F (May 25, 2:53 PM)100% (May 13, 11:53 PM)30.25 "Hg (May 13, 11:53 PM)
Low42 °F (May 16, 4:53 AM)23% (May 25, 1:53 PM)29.61 "Hg (May 14, 6:53 PM)
Average62 °F64%30.01 "Hg
* Reported May 13 9:53 PM — May 28 9:53 PM, Babylon, Weather by CustomWeather, © 2016

Note: Actual official high and low records may vary slightly from our data, if they occured in-between our weather recording intervals... More about our weather records

Advertising

Babylon Weather History for the Previous 24 Hours

Scroll right to see more
 ConditionsComfort  
Time TempWeatherWind HumidityBarometerVisibility
9:53 PM
Sat, May 28
73 °FPassing clouds.10 mph55%30.13 "Hg10 mi
8:53 PM73 °FSunny.9 mph50%30.11 "Hg10 mi
7:53 PM73 °FSunny.14 mph53%30.11 "Hg10 mi
6:53 PM74 °FSunny.15 mph56%30.11 "Hg10 mi
5:53 PM75 °FSunny.20 mph62%30.11 "Hg10 mi
4:53 PM78 °FSunny.16 mph60%30.11 "Hg10 mi
3:53 PM78 °FSunny.14 mph62%30.11 "Hg10 mi
2:53 PM79 °FSunny.10 mph62%30.12 "Hg10 mi
1:53 PM79 °FSunny.13 mph62%30.12 "Hg10 mi
12:53 PM80 °FSunny.10 mph60%30.12 "Hg10 mi
11:53 AM79 °FSunny.9 mph60%30.14 "Hg10 mi
10:53 AM79 °FSunny.5 mph60%30.13 "Hg10 mi
9:53 AM76 °FSunny.7 mph62%30.13 "Hg10 mi
8:53 AM73 °FSunny.7 mph64%30.12 "Hg10 mi
7:53 AM70 °FSunny.8 mph68%30.13 "Hg10 mi
6:53 AM66 °FSunny.7 mph75%30.13 "Hg10 mi
5:53 AM65 °FClear.6 mph76%30.11 "Hg10 mi
4:53 AM65 °FClear.6 mph76%30.10 "Hg10 mi
3:53 AM65 °FPassing clouds.5 mph73%30.09 "Hg10 mi
2:53 AM66 °FClear.9 mph70%30.09 "Hg10 mi
1:53 AM67 °FClear.8 mph68%30.09 "Hg10 mi
12:53 AM67 °FClear.8 mph71%30.10 "Hg10 mi
11:53 PM
Fri, May 27
67 °FClear.14 mph68%30.09 "Hg10 mi
Weather by CustomWeather, © 2016

See weather overviewHow to use our weather pages